World > North America > United States > Ohio

Delphos, Ohio Regional Weather

Lat: 40.84N, Lon: 84.34W
Wx Zone: OHZ024
Warning NWS WEATHER ALERT - (More Info. Click Here) Warning
Feedback

Delphos, OH Regional Weather

Expires:202001290500;;676969
ASUS41 KCLE 290412
RWRCLE
OHIO REGIONAL WEATHER ROUNDUP
NATIONAL WEATHER SERVICE WILMINGTON, OH
1100 PM EST TUE JAN 28 2020

NOTE: "FAIR" INDICATES FEW OR NO CLOUDS BELOW 12,000 FEET WITH NO
SIGNIFICANT WEATHER AND/OR OBSTRUCTIONS TO VISIBILITY.


OHZ001>008-015>018-024>027-034-035-043-044-290500-
   NORTHWEST OHIO
  
CITY           SKY/WX    TMP DP  RH WIND       PRES   REMARKS
DEFIANCE       CLOUDY    33  30  88 CALM      30.10S                  
FINDLAY        CLOUDY    33  30  88 CALM      30.09S                  
TOLEDO EXPRESS CLOUDY    34  22  61 N6        30.10R WCI  29          
TOLEDO EXEC    CLOUDY    33  26  75 NW5       30.11R WCI  29          
LIMA           CLOUDY    32  29  88 W3        30.09R                  
$$
 

SKY/WX - Weather  TMP - Temperature  DP - Dew Point  RH - Relative Humidity
WIND - Wind Direction/Speed PRES - Barometric Pressure VSB - Visibility
WCI - Wind Chill Index E13G22 Wind - East Wind 13 mph/Gusts of 22 mph